Weather in Bogushevichi

Belarus     53°42′43″N   28°49′24″E
temp.,
°C
wind,
m/s
gust,
m/s
humid.,
%
clouds,
%
prec.,
mm/h
press.,
hPa
HPBL,
m
6 march, sat
sat600:00−5wnw12550 0.0 102021
03:00−5wsw246130 0.0 1021119
06:00−5w4692100 0.4 1021423
09:00−5nw468996 0.5 1022490
12:00−2nnw465770 0.0 10231271
15:00−1wnw574744 0.0 10221597
18:00−2w595526 0.0 10211031
21:00−4wsw5126513 0.0 1020561
7 march, sun
sun700:00−3wsw7146762 0.0 1017727
03:00−2wsw8176881 0.0 1013838
06:00−2wsw91777100 0.0 10071019
09:000wsw111985100 0.1 10051216
12:00−2nnw61192100 2.4 1006654
15:000wnw8124274 0.9 10061819
18:00−1w6155556 0.0 10051809
21:00−2w8156342 0.1 10051302
8 march, mon
mon800:00−3wnw714639 0.0 10061255
03:00−5nnw596636 0.2 1008976
06:00−7nw485911 0.0 1009724
09:00−6nw585555 0.0 1010795
12:00−4nw58450 0.0 10121219
15:00−2wnw69470 0.0 10131294
18:00−3nw585729 0.0 10141248
21:00−5nnw476765 0.0 1016950
9 march, tue
tue900:00−6n5867100 0.0 10181029
03:00−7n486291 0.0 1020918
06:00−8nnw47640 0.0 1022720
09:00−8nnw35630 0.0 1023480
12:00−5wnw34470 0.0 1024626
15:00−2w46420 0.0 1024852
18:00−3w585254 0.0 1023725
21:00−4wsw496262 0.0 1024369
10 march, wed
wed1000:00−5wsw497145 0.0 1023318
03:00−6wsw4106950 0.0 1022409
06:00−6wsw4106629 0.0 1021362
09:00−5wsw596159 0.0 1020412
12:00−1wsw585193 0.0 1018734
15:00+1wsw685174 0.0 10161079
18:000sw496121 0.0 1014873
21:00−1sw5127856 0.0 1013584